FENGYUN 1C DEB, 31997

Orbit data source: Space-Track

FENGYUN 1C DEB, 31997 is space debris in SSO originally from a launch on Mon, 10 May 1999 UTC launched from the Taiyaun Space Center, China (TSC). Fengyun 1C debris stems from the Chinese weather satellite Fengyun-1C, which was intentionally destroyed by a Chinese anti-satellite missile in 2007. This event dramatically increased the amount of space debris, with thousands of trackable fragments posing hazards to satellites and human spaceflight. The Fengyun 1C debris cloud has become a focal point in discussions about space sustainability and the need for international regulations to prevent the creation of new debris.

Loading next visibility...
Identifier
31997, 1999-025CQA
Orbit
SSO
Country
Flag of CNCN / PRC
Related business
Manufacturer
Unknown
Mission
Spacecraft
Bus & Motor
Unknown
Mass
Unknown
Launch date (UTC)
1999-05-10 (27 years ago)
Launch vehicle
Unknown
Launch site
Taiyaun Space Center, China (TSC)
Object type
Payload
Rocket body
Debris
Shape & HBR
Unknown shape, 0.1 m
Radar Cross Section
Small (<0.1 m²)

Expand to show TLE details & history
Last TLE update: 4 days ago

TLE from 4 days ago
0 FENGYUN 1C DEB
1 31997U 99025CQA 26120.51893798  .00001519  00000-0  15962-2 0  9996
2 31997 102.5017 207.4946 0283330 320.3018  37.7676 13.61213286635716
Epoch: 2026-04-30T12:27Z
TLE epoch observation values (Epoch: 2026-04-30T12:27:16.241Z)
Latitude
-0.00004°
Longitude
162.21255°
Altitude
870.31 km
Speed
7.499 km/s
True Right ascension
13h 49m 58s
True Declination
0° 00' 00"
Sunlit
Object was in full shadow at epoch
Visualization orbit readout
Latitude
Unknown
Longitude
Unknown
Altitude
Unknown
Speed
Unknown
Apparent Right ascension
Unknown
Apparent Declination
Unknown
Sunlit
N/A
Visualization observer readout
Local Sidereal Time
19:07:43
Azimuth
Unknown
Elevation
Unknown
Doppler factor
Unknown
Orbital elements
Apogee altitude
1,238.593 km
Perigee altitude
818.875 km
Semi-major axis
7,406.871 km
Eccentricity
0.02833
Inclination
102.5017°
RAAN
207.4946°
Arg. of periapsis
320.3018°
True anomaly
39.81286°
Mean anomaly
37.7676°
Eccentric anomaly
38.78446°
Mean motion
3.4048 °/min
Orbital period
105.73 mins
BSTAR
0.0015962
Loading maneuver chart data...
Computing Atmospheric mass density...

Documentation

Showing up to 5 results
|